(136217) = 2003 WK72

Discovered at Socorro on 2003-11-20 by LINEAR.

Orbit

Orbit type: Main Belt

Note: WebGL enabled browser required.

epoch2023-09-13.0
epoch JD2460200.5
perihelion date2020-04-29.08999
perihelion JD2458968.58999
argument of perihelion (°)347.26516
ascending node (°)8.28263
inclination (°)4.98722
eccentricity0.1969898
perihelion distance (AU)1.8080395
Tisserand w.r.t. Jupiter3.6
ΔV w.r.t. Earth (km/sec)8.4
semimajor axis (AU)2.2515774
mean anomaly (°)359.37884
mean daily motion (°/day)0.29172490
aphelion distance (AU)2.695
period (years)3.38
P-vector [x]0.99686220
P-vector [y]-0.06284135
P-vector [z]-0.04813221
Q-vector [x]0.07815953
Q-vector [y]0.87763124
Q-vector [z]0.47292123
absolute magnitude16.62
phase slope0.15
uncertainty0
referenceMPEC 2024-A55
observations used801
oppositions18
arc length (days)9941
first opposition used1996
last opposition used2023
residual rms (arc-secs)0.65
perturbers coarse indicatorM-v
perturbers precise indicator003Ek
first observation date used1996-09-17.0
last observation date used2023-12-06.0
computer nameMPCLINUX
JD of orbit computation2456670.905358
perihelion JD uncertainty (days)3.3043E-05
argument of perihelion uncertainty (°)4.2604E-05
ascending node uncertainty (°)4.1206E-05
inclination uncertainty (°)4.9236E-06
eccentricity uncertainty 4.5700E-08
perihelion distance uncertainty (AU)1.0123E-07
Minimum Orbit Intersection Distances (in AU)
for orbit epoch: 2460200.5, reference: E2023-XD2
Mercury1.43292
Venus1.08206
Earth0.80335
Mars0.41642
Jupiter2.73425
Saturn6.63784
Uranus15.7567
Neptune27.8181

Observations

819 total observations over interval: 1996 09 17.27078 – 2023 12 06.203592
These data are available for download (format description).

Date (UT) J2000 RA J2000 Dec Magn Location Ref
1996 09 17.27078 00 43 51.68 +03 24 16.5 18.7 V 566 – Haleakala-NEAT/GEODSS MPS 93775
1996 09 17.27253 00 43 51.60 +03 24 15.9 18.7 V 566 – Haleakala-NEAT/GEODSS MPS 93775
1996 09 17.28148 00 43 51.09 +03 24 16.7 18.6 V 566 – Haleakala-NEAT/GEODSS MPS 93775
1996 09 17.28337 00 43 51.02 +03 24 16.0 18.8 V 566 – Haleakala-NEAT/GEODSS MPS 93775
1996 09 17.29172 00 43 50.62 +03 24 16.7 18.6 V 566 – Haleakala-NEAT/GEODSS MPS 93775
1996 09 17.29357 00 43 50.46 +03 24 16.1 19.0 V 566 – Haleakala-NEAT/GEODSS MPS 93775
1998 03 21.19295 10 36 42.02 +12 04 21.6 21.2 V 691 – Steward Observatory, Kitt Peak-Spacewatch MPS 93775
1998 03 21.21491 10 36 40.88 +12 04 25.4 21.1 V 691 – Steward Observatory, Kitt Peak-Spacewatch MPS 93775
1998 03 21.23642 10 36 39.72 +12 04 29.1 21.1 V 691 – Steward Observatory, Kitt Peak-Spacewatch MPS 93775
2001 01 04.39010 08 49 06.25 +25 41 58.3 19.9   704 – Lincoln Laboratory ETS, New Mexico MPS 93775
2001 01 04.40524 08 49 05.33 +25 42 01.8 19.3   704 – Lincoln Laboratory ETS, New Mexico MPS 93775
2001 01 04.42039 08 49 04.35 +25 42 06.5 20.2   704 – Lincoln Laboratory ETS, New Mexico MPS 93775
2002 04 14.35870 14 43 14.72 -19 48 27.1 20.7   704 – Lincoln Laboratory ETS, New Mexico MPS 93775
2002 04 14.37287 14 43 13.88 -19 48 26.5 20.5   704 – Lincoln Laboratory ETS, New Mexico MPS 93775
2002 04 14.38694 14 43 13.01 -19 48 25.0 20.3   704 – Lincoln Laboratory ETS, New Mexico MPS 93775
2003 10 05.37785 04 49 04.76 +27 14 57.3 19.7   704 – Lincoln Laboratory ETS, New Mexico MPS 94778
2003 10 05.39284 04 49 05.26 +27 15 03.4 19.7   704 – Lincoln Laboratory ETS, New Mexico MPS 94778
2003 10 05.42494 04 49 06.14 +27 15 13.0 20.0   704 – Lincoln Laboratory ETS, New Mexico MPS 94778
2003 10 05.43921 04 49 06.63 +27 15 17.1 20.0   704 – Lincoln Laboratory ETS, New Mexico MPS 94778
2003 10 25.32742 04 50 35.02 +28 49 07.6 19.8   704 – Lincoln Laboratory ETS, New Mexico MPS 93775
2003 10 25.34026 04 50 34.62 +28 49 11.9 19.5   704 – Lincoln Laboratory ETS, New Mexico MPS 93775
2003 10 25.35216 04 50 34.42 +28 49 15.8 19.4   704 – Lincoln Laboratory ETS, New Mexico MPS 93775
2003 10 25.36406 04 50 34.06 +28 49 18.1 19.3   704 – Lincoln Laboratory ETS, New Mexico MPS 93775
2003 10 25.37675 04 50 33.78 +28 49 22.1 19.2   704 – Lincoln Laboratory ETS, New Mexico MPS 93775
2003 11 20.32804 04 28 02.81 +29 47 43.8 19.0   704 – Lincoln Laboratory ETS, New Mexico MPS 92055
2003 11 20.34114 04 28 01.78 +29 47 44.0 19.1   704 – Lincoln Laboratory ETS, New Mexico MPS 92055
2003 11 20.35410 04 28 00.78 +29 47 44.0 19.1   704 – Lincoln Laboratory ETS, New Mexico MPS 92055
2003 11 20.36724 04 27 59.80 +29 47 43.7 19.0   704 – Lincoln Laboratory ETS, New Mexico MPS 92055
2003 11 20.38017 04 27 58.78 +29 47 44.1 19.0   704 – Lincoln Laboratory ETS, New Mexico MPS 92055
2003 11 21.25702 04 26 54.08 +29 47 42.1 18.5   704 – Lincoln Laboratory ETS, New Mexico MPS 92055
2003 11 21.25729 04 26 54.09 +29 47 41.3 18.3   704 – Lincoln Laboratory ETS, New Mexico MPS 92055
2003 11 21.26981 04 26 53.05 +29 47 42.2 18.8   704 – Lincoln Laboratory ETS, New Mexico MPS 92055
2003 11 21.27009 04 26 53.05 +29 47 41.5 18.8   704 – Lincoln Laboratory ETS, New Mexico MPS 92055
2003 11 21.28266 04 26 52.10 +29 47 42.6 18.9   704 – Lincoln Laboratory ETS, New Mexico MPS 92055
2003 11 21.28293 04 26 52.05 +29 47 42.1 18.9   704 – Lincoln Laboratory ETS, New Mexico MPS 92055
2003 11 21.29541 04 26 51.12 +29 47 42.4 19.1   704 – Lincoln Laboratory ETS, New Mexico MPS 92055
2003 11 21.29568 04 26 51.09 +29 47 41.7 18.7   704 – Lincoln Laboratory ETS, New Mexico MPS 92055
2003 11 21.30846 04 26 50.06 +29 47 42.2 18.8   704 – Lincoln Laboratory ETS, New Mexico MPS 92055
2003 11 21.30874 04 26 50.05 +29 47 41.1 18.9   704 – Lincoln Laboratory ETS, New Mexico MPS 92055
2003 11 24.25485 04 23 08.04 +29 46 29.3 18.5   704 – Lincoln Laboratory ETS, New Mexico MPS 92055
2003 11 24.26764 04 23 07.02 +29 46 29.3 19.1   704 – Lincoln Laboratory ETS, New Mexico MPS 92055
2003 11 24.28023 04 23 06.04 +29 46 29.3 19.4   704 – Lincoln Laboratory ETS, New Mexico MPS 92055
2003 11 24.29274 04 23 05.01 +29 46 27.8 18.9   704 – Lincoln Laboratory ETS, New Mexico MPS 92055
2003 11 24.30563 04 23 03.99 +29 46 27.3 19.0   704 – Lincoln Laboratory ETS, New Mexico MPS 92055
2003 12 04.27165 04 10 35.64 +29 31 03.8 19.2   704 – Lincoln Laboratory ETS, New Mexico MPS 92842
2003 12 04.28385 04 10 34.78 +29 31 01.7 18.8   704 – Lincoln Laboratory ETS, New Mexico MPS 92842
2003 12 04.29603 04 10 33.88 +29 31 01.0 19.0   704 – Lincoln Laboratory ETS, New Mexico MPS 92842
2003 12 04.30824 04 10 32.94 +29 30 58.2 18.8   704 – Lincoln Laboratory ETS, New Mexico MPS 92842
2003 12 04.32036 04 10 31.91 +29 30 57.3 19.2   704 – Lincoln Laboratory ETS, New Mexico MPS 92842
2003 12 12.35581 04 01 35.31 +29 08 48.0 19.3   644 – Palomar Mountain/NEAT MPS 93445
2003 12 12.37624 04 01 34.02 +29 08 43.7 19.3   644 – Palomar Mountain/NEAT MPS 93445
2003 12 12.41203 04 01 31.82 +29 08 36.4 19.1   644 – Palomar Mountain/NEAT MPS 93445
2003 12 18.27128 03 56 10.60 +28 49 26.4 19.5 V 691 – Steward Observatory, Kitt Peak-Spacewatch MPS 93775
2003 12 18.27153 03 56 10.66 +28 49 26.2 18.9   704 – Lincoln Laboratory ETS, New Mexico MPS 93775
2003 12 18.30364 03 56 08.93 +28 49 19.7 19.4 V 691 – Steward Observatory, Kitt Peak-Spacewatch MPS 93775
2003 12 18.31325 03 56 08.39 +28 49 17.3 19.0   704 – Lincoln Laboratory ETS, New Mexico MPS 93775
2003 12 18.32610 03 56 07.74 +28 49 13.7 18.6   704 – Lincoln Laboratory ETS, New Mexico MPS 93775
2003 12 18.33596 03 56 07.27 +28 49 12.8 19.6 V 691 – Steward Observatory, Kitt Peak-Spacewatch MPS 93775
2003 12 23.20676 03 52 36.55 +28 32 41.4 19.3   704 – Lincoln Laboratory ETS, New Mexico MPS 94778
2003 12 23.21964 03 52 36.03 +28 32 39.6 19.7   704 – Lincoln Laboratory ETS, New Mexico MPS 94778
2003 12 23.24600 03 52 35.03 +28 32 34.2 19.4   704 – Lincoln Laboratory ETS, New Mexico MPS 94778
2003 12 23.25888 03 52 34.33 +28 32 31.9 19.4   704 – Lincoln Laboratory ETS, New Mexico MPS 94778
2003 12 28.21743 03 49 57.48 +28 16 09.0 19.4   704 – Lincoln Laboratory ETS, New Mexico MPS 95834
2003 12 28.23083 03 49 57.09 +28 16 05.9 19.7   704 – Lincoln Laboratory ETS, New Mexico MPS 95834
2003 12 28.25729 03 49 56.37 +28 16 01.4 19.6   704 – Lincoln Laboratory ETS, New Mexico MPS 95834
2004 01 17.10958 03 49 17.67 +27 27 16.8 19.9   644 – Palomar Mountain/NEAT MPS 97025
2004 01 17.13096 03 49 18.02 +27 27 15.1 19.6   644 – Palomar Mountain/NEAT MPS 97025
2004 01 17.15222 03 49 18.43 +27 27 12.8 19.9   644 – Palomar Mountain/NEAT MPS 97025
2005 03 16.38459 12 20 38.33 -01 13 44.6 20.2 V 691 – Steward Observatory, Kitt Peak-Spacewatch MPS 129100
2005 03 16.41103 12 20 36.72 -01 13 37.0 20.2 V 691 – Steward Observatory, Kitt Peak-Spacewatch MPS 129100
2005 03 16.43620 12 20 35.17 -01 13 30.1 20.4 V 691 – Steward Observatory, Kitt Peak-Spacewatch MPS 129100
2005 04 02.19822 12 03 40.42 +00 06 14.7 19.7 R G96 – Mt. Lemmon Survey MPS 130219
2005 04 02.20352 12 03 40.13 +00 06 15.9 19.3 R G96 – Mt. Lemmon Survey MPS 130219
2005 04 02.20885 12 03 39.79 +00 06 17.1 19.0 R G96 – Mt. Lemmon Survey MPS 130219
2005 04 02.21416 12 03 39.44 +00 06 19.0 19.4 R G96 – Mt. Lemmon Survey MPS 130219
2005 04 02.26348 12 03 36.46 +00 06 32.0 19.2 R G96 – Mt. Lemmon Survey MPS 130219
2005 04 02.26998 12 03 36.08 +00 06 33.7 19.5 R G96 – Mt. Lemmon Survey MPS 130219
2005 04 02.27645 12 03 35.68 +00 06 35.7 19.4 R G96 – Mt. Lemmon Survey MPS 130219
2005 04 02.28296 12 03 35.27 +00 06 37.3 19.7 R G96 – Mt. Lemmon Survey MPS 130219
2005 04 02.36001 12 03 30.60 +00 06 58.4 19.4 R G96 – Mt. Lemmon Survey MPS 130219
2005 04 02.36534 12 03 30.28 +00 06 59.6 19.5 R G96 – Mt. Lemmon Survey MPS 130219
2005 04 02.37072 12 03 29.96 +00 07 01.4 19.7 R G96 – Mt. Lemmon Survey MPS 130219
2005 04 02.37602 12 03 29.65 +00 07 02.4 19.7 R G96 – Mt. Lemmon Survey MPS 130219
2005 04 04.30223 12 01 37.45 +00 15 37.8 19.8 R 703 – Catalina Sky Survey MPS 130749
2005 04 04.30594 12 01 37.28 +00 15 40.4 19.7 R G96 – Mt. Lemmon Survey MPS 130749
2005 04 04.31031 12 01 36.91 +00 15 42.1 19.5 R 703 – Catalina Sky Survey MPS 130749
